Zurück zum Katalog

STARLINK-37268

AktivKommunikationSSO
NORAD 68747·PAYLOAD·🇺🇸 United States

Gestartet Apr 15, 2026 von Vandenberg Space Force Base

Loading…

Nächste Überflüge (nächste 24 Stunden)

TLE

AktuellSource: CelesTrak SupGP

Epoche: Sep 14, 2026, 22:41 UTC

1 68747C 26082V   26257.94562500  .00068874  00000+0  21384-2 0  2572
2 68747  97.2849 120.2356 0001759  94.0366  74.1269 15.33397332    11

Verfolge STARLINK-37268 in Echtzeit mit AllMySat

Download on the App Store